This is the latest recevied weather packets stored in our database for station/object XE2RCS-21. If no packets are shown the sender has not sent any weather packets the latest 10 day(s).
| Time | Temp. | Humidity | Pressure | Rain* | Wind** | Luminosity | Snow |
|---|---|---|---|---|---|---|---|
| 1778232648 | 18.33° C | 100% | 1009.2 hPa | - | - | - | - |
| 1778230848 | 17.78° C | 100% | 1009.4 hPa | - | - | - | - |
| 1778229047 | 18.33° C | 100% | 1009.6 hPa | - | - | - | - |
| 1778227247 | 18.89° C | 100% | 1009.6 hPa | - | - | - | - |
| 1778225447 | 18.89° C | 100% | 1010.1 hPa | - | - | - | - |
| 1778223647 | 18.33° C | 100% | 1010.8 hPa | - | - | - | - |
| 1778221847 | 18.89° C | 100% | 1011.5 hPa | - | - | - | - |
| 1778220046 | 19.44° C | 100% | 1011.4 hPa | - | - | - | - |
| 1778218246 | 19.44° C | 100% | 1010.8 hPa | - | - | - | - |
| 1778216446 | 19.44° C | 100% | 1009.1 hPa | - | - | - | - |
| 1778214646 | 20.56° C | 100% | 1007.6 hPa | - | - | - | - |
| 1778212845 | 20° C | 100% | 1006.2 hPa | - | - | - | - |
| 1778211047 | 19.44° C | 100% | 997.3 hPa | - | - | - | - |
| 1778209247 | 20° C | 100% | 1004.6 hPa | - | - | - | - |
| 1778207447 | 20.56° C | 100% | 1005.4 hPa | - | - | - | - |
| 1778205647 | 22.22° C | 100% | 1005.8 hPa | - | - | - | - |
| 1778203847 | 22.22° C | 100% | 1006.1 hPa | - | - | - | - |
| 1778202047 | 23.33° C | 100% | 1008 hPa | - | - | - | - |
| 1778200246 | 26.67° C | 100% | 1015.7 hPa | - | - | - | - |
| 1778198446 | 27.78° C | 100% | 1017.1 hPa | - | - | - | - |
| 1778196646 | 27.22° C | 100% | 1017.8 hPa | - | - | - | - |
| 1778194846 | 30° C | 75% | 1018.3 hPa | - | - | - | - |
| 1778193046 | 28.89° C | 98% | 1018 hPa | - | - | - | - |
| 1778191245 | 31.11° C | 61% | 1018.7 hPa | - | - | - | - |
| 1778189446 | 31.67° C | 60% | 1018.8 hPa | - | - | - | - |
* Rain since midnight (hover to see other rain measurements)
** Current wind speed in m/s (hover to see current wind gust speed)